CAPE
776 814 887 929 1024 1018 942 708 670 839 671 643 764 553 386 151 70 29 1 0 0 0 0 0 0 0 0 0 0 0 0 0 0 0 0 0 0 0 0 0 0 0 0
804 823 764 794 897 989 1105 999 830 800 797 620 587 448 355 188 65 67 54 2 0 0 0 0 0 0 0 1 12 15 1 0 0 0 1 2 5 0 0 0 0 0 0
755 940 962 944 976 887 957 1149 1080 1095 963 690 539 487 342 252 165 103 104 36 0 0 0 0 0 0 0 0 14 8 4 0 0 0 0 3 10 3 0 0 0 0 0
882 991 1041 1064 1048 1099 1050 1007 1124 1189 1334 1114 786 676 489 384 320 245 195 158 42 17 13 0 0 0 0 0 3 11 8 4 0 0 0 0 3 3 1 1 0 0 0
1035 1200 1166 1220 1162 1282 1301 1251 1150 1174 1260 1255 1173 812 686 588 569 406 327 306 173 106 59 30 1 1 11 15 10 0 3 5 14 15 9 6 4 16 19 4 0 0 0
1238 1306 1487 1482 1466 1514 1633 1639 1511 1384 1339 1144 1128 1239 1109 896 680 602 590 469 335 258 221 113 98 37 75 144 125 85 46 15 18 20 22 17 21 9 5 5 0 0 0
1474 1549 1656 1670 1600 1657 1909 2000 1843 1658 1529 1410 1190 1111 1069 1155 870 741 731 662 502 394 261 219 124 130 46 94 87 128 141 64 1 0 15 4 8 2 0 0 0 0 0
1574 1756 1968 1904 1789 1814 1905 2015 2111 1983 1762 1631 1396 1294 1183 1212 1003 804 780 792 629 537 472 360 319 233 57 32 107 130 213 77 0 1 17 29 5 1 2 3 2 3 0
1686 1884 2055 2184 2136 2148 2041 2018 2209 2282 2009 1925 1648 1438 1425 1291 975 905 947 783 750 729 585 500 494 393 158 6 178 143 31 3 1 2 20 22 38 32 2 0 1 1 0
1627 1819 2094 2182 2294 2295 2219 2219 2271 2359 2320 2019 1895 1756 1690 1601 1273 1155 996 903 969 935 814 753 554 402 152 108 309 66 0 0 0 0 0 0 0 0 0 0 0 0 0
1394 1781 2051 2314 2322 2281 2389 2475 2476 2455 2438 2195 2091 1988 1776 1831 1517 1128 873 1021 1271 1221 973 773 385 190 183 20 0 2 0 0 0 0 0 0 0 0 0 0 0 0 0
1260 1442 1922 2059 2314 2396 2377 2552 2608 2594 2551 2457 2465 2076 1863 1703 1453 921 896 1239 1020 971 776 538 142 34 0 0 0 0 0 0 0 0 0 0 0 0 0 0 0 0 0
921 1155 1249 1617 2045 2338 2436 2563 2664 2584 2549 2493 2192 1859 1502 1357 1084 989 755 742 561 448 118 1 0 1 0 0 0 0 0 0 0 0 0 0 0 0 0 0 0 0 0
678 803 1056 1214 1613 2165 2496 2603 2641 2511 2501 2135 1694 1294 999 944 821 414 361 194 76 40 1 0 0 0 0 0 0 0 0 0 0 0 0 0 0 0 0 0 0 0 0
997 894 1030 1283 1593 1865 1224 2010 2754 1899 2073 1321 971 611 80 318 312 158 250 119 66 16 0 0 0 0 0 0 0 0 0 0 0 0 0 0 0 0 0 0 0 0 0
2060 1692 1461 1160 695 483 494 418 59 523 509 436 517 50 0 47 182 132 113 82 2 0 0 0 0 0 0 0 0 0 0 0 0 0 0 0 0 0 0 0 0 0 0
1131 706 306 122 368 271 67 31 1 5 0 0 0 0 40 5 6 22 35 19 0 2 0 0 0 0 0 0 0 0 0 0 0 0 0 0 0 0 0 0 0 0 0
0 16 32 214 210 3 0 0 0 3 2 51 0 0 73 0 0 2 0 0 0 0 0 0 0 0 0 0 0 0 0 0 0 0 0 0 0 0 0 0 0 0 0
75 23 0 0 29 1 0 0 0 2 4 0 0 0 1 0 0 0 0 0 0 0 0 0 0 0 0 0 0 0 0 0 0 0 0 0 0 0 0 0 0 0 0
252 41 2 0 0 0 0 0 0 0 0 0 4 0 0 0 0 0 0 0 0 0 0 0 0 0 0 0 0 0 0 0 0 0 0 0 0 0 0 0 0 0 0
137 5 10 1 1 7 8 22 7 7 26 12 8 0 0 0 0 0 0 0 0 0 0 0 0 0 0 0 0 0 0 0 0 0 0 0 0 0 0 0 0 0 0
85 144 150 137 121 73 86 87 30 1 0 0 0 0 0 0 0 0 0 0 0 0 0 0 0 0 0 0 0 0 0 0 0 0 0 0 0 0 0 0 0 0 0
6 35 50 48 71 45 24 7 0 0 0 0 0 0 0 0 0 0 0 0 0 0 0 0 0 0 0 0 0 0 0 0 0 0 0 0 0 0 0 0 0 0 0
0 0 0 1 7 32 33 38 19 0 0 0 0 0 0 0 0 0 0 0 0 0 0 0 0 0 0 0 0 0 0 0 0 0 0 0 0 0 0 0 0 0 0
0 0 0 0 0 0 2 8 27 18 0 0 0 0 0 0 0 0 0 0 0 0 0 0 0 0 0 0 0 0 0 0 0 0 0 0 0 0 0 0 0 0 0
8 7 5 9 30 35 26 26 26 27 18 8 2 0 0 0 0 0 0 0 0 0 0 0 0 0 0 0 0 0 0 0 0 0 0 0 0 0 0 0 0 0 0
CIN
-440 -370 -308 -286 -266 -245 -210 -229 -245 -219 -253 -245 -214 -233 -251 -305 -362 -380 -51 -0 -0 -0 -0 -0 -0 -0 -0 -0 -0 -0 -0 -0 -0 -0 -0 -0 -0 -0 -0 -0 -0 -0 -0
-465 -412 -366 -337 -311 -270 -215 -242 -263 -258 -276 -288 -265 -283 -291 -335 -396 -358 -337 -331 -0 -0 -0 -0 -0 -0 -0 -56 -185 -161 -147 -0 -0 -3 -114 -96 -105 -7 -0 -0 -0 -5 -0
-507 -435 -390 -340 -337 -320 -272 -277 -288 -270 -296 -324 -334 -312 -336 -348 -364 -373 -352 -372 -0 -57 -0 -0 -0 -0 -0 -0 -164 -132 -124 -0 -0 -0 -0 -90 -113 -101 -0 -0 -0 -0 -0
-526 -487 -425 -368 -348 -355 -310 -323 -341 -322 -291 -315 -364 -336 -347 -341 -337 -351 -363 -368 -422 -406 -397 -0 -0 -0 -0 -0 -99 -105 -96 -95 -0 -0 -0 -0 -91 -114 -71 -49 -0 -0 -0
-523 -517 -482 -421 -348 -349 -329 -340 -364 -383 -365 -344 -322 -365 -355 -349 -340 -365 -371 -327 -345 -360 -374 -355 -147 -170 -222 -199 -179 -25 -88 -163 -53 -46 -49 -67 -72 -71 -63 -51 -0 -0 -0
-543 -510 -525 -450 -393 -347 -346 -335 -361 -388 -366 -425 -398 -330 -332 -362 -385 -361 -312 -311 -321 -314 -290 -328 -277 -267 -200 -143 -136 -111 -85 -79 -43 -39 -30 -26 -45 -67 -90 -89 -0 -0 -0
-514 -521 -524 -505 -422 -377 -344 -307 -336 -381 -383 -401 -420 -418 -404 -340 -380 -364 -328 -287 -305 -313 -318 -281 -271 -244 -220 -135 -111 -86 -56 -59 -21 -12 -40 -53 -43 -46 -0 -0 -0 -0 -0
-532 -518 -509 -502 -484 -431 -389 -350 -325 -339 -383 -373 -440 -417 -385 -357 -382 -385 -344 -283 -312 -305 -288 -268 -196 -179 -198 -177 -94 -66 -42 -70 -0 -53 -50 -53 -82 -40 -46 -65 -44 -83 -0
-521 -516 -534 -498 -466 -432 -418 -400 -339 -265 -304 -346 -392 -383 -327 -349 -396 -375 -310 -324 -294 -256 -230 -197 -142 -140 -172 -191 -86 -53 -74 -31 -67 -80 -87 -81 -76 -81 -16 -0 -41 -11 -0
-480 -487 -516 -520 -462 -441 -443 -416 -382 -310 -284 -283 -300 -312 -287 -280 -305 -304 -311 -295 -234 -192 -172 -144 -146 -132 -160 -112 -42 -73 -4 -0 -0 -1 -0 -0 -0 -0 -0 -0 -0 -0 -0
-434 -443 -498 -518 -493 -472 -434 -341 -315 -283 -221 -226 -240 -232 -246 -205 -233 -307 -327 -272 -180 -118 -132 -127 -181 -176 -98 -180 -14 -96 -0 -0 -0 -0 -0 -0 -0 -0 -0 -0 -0 -0 -0
-377 -456 -497 -534 -529 -467 -408 -341 -259 -230 -198 -174 -156 -165 -185 -179 -212 -301 -269 -201 -161 -147 -151 -178 -234 -214 -0 -0 -0 -0 -0 -0 -0 -0 -0 -0 -0 -0 -0 -0 -0 -0 -0
-446 -436 -460 -513 -512 -457 -418 -393 -283 -267 -230 -161 -123 -146 -188 -167 -232 -222 -168 -247 -266 -250 -343 -34 -0 -28 -0 -0 -0 -0 -0 -0 -0 -0 -0 -0 -0 -0 -0 -0 -0 -0 -0
-360 -420 -493 -531 -546 -471 -418 -325 -233 -149 -104 -79 -159 -192 -199 -137 -155 -403 -369 -433 -440 -454 -68 -0 -156 -0 -0 -0 -0 -0 -0 -0 -0 -0 -0 -0 -0 -0 -0 -0 -0 -0 -0
-409 -449 -496 -534 -442 -366 -556 -389 -139 -289 -145 -169 -202 -212 -521 -70 -78 -130 -390 -491 -432 -288 -11 -0 -0 -0 -0 -0 -0 -0 -0 -0 -0 -0 -0 -0 -0 -0 -0 -0 -0 -0 -0
-319 -357 -377 -423 -568 -718 -643 -614 -904 -471 -427 -409 -305 -303 -0 -45 -55 -145 -296 -367 -293 -0 -12 -0 -0 -0 -0 -0 -0 -0 -0 -0 -0 -0 -0 -0 -0 -0 -0 -0 -0 -0 -0
-388 -438 -529 -574 -465 -494 -597 -700 -0 -12 -0 -0 -0 -161 -298 -421 -169 -208 -293 -298 -0 -0 -0 -0 -0 -0 -0 -0 -0 -0 -0 -0 -0 -0 -0 -0 -0 -0 -0 -0 -0 -0 -0
-39 -509 -468 -225 -169 -0 -0 -0 -0 -26 -26 -25 -0 -0 -515 -0 -0 -224 -0 -0 -0 -0 -0 -0 -0 -0 -0 -0 -0 -0 -0 -0 -0 -0 -0 -0 -0 -0 -0 -0 -0 -0 -0
-556 -525 -0 -0 -113 -168 -0 -0 -0 -94 -58 -0 -0 -0 -0 -0 -0 -0 -0 -0 -0 -0 -0 -0 -0 -0 -0 -0 -0 -0 -0 -0 -0 -0 -0 -0 -0 -0 -0 -0 -0 -0 -0
-265 -249 -0 -5 -0 -0 -0 -0 -0 -0 -0 -49 -181 -0 -0 -0 -0 -0 -0 -0 -0 -0 -0 -0 -0 -0 -0 -0 -0 -0 -0 -0 -0 -0 -0 -0 -0 -0 -0 -0 -0 -0 -0
-139 -45 -176 -7 -8 -367 -289 -214 -259 -230 -205 -216 -228 -0 -0 -0 -0 -0 -0 -0 -0 -0 -0 -0 -0 -0 -0 -0 -0 -0 -0 -0 -0 -0 -0 -0 -0 -0 -0 -0 -0 -0 -0
-131 -88 -83 -83 -110 -150 -158 -170 -193 -168 -0 -0 -0 -0 -0 -0 -0 -0 -0 -0 -0 -0 -0 -0 -0 -0 -0 -0 -0 -0 -0 -0 -0 -0 -0 -0 -0 -0 -0 -0 -0 -0 -0
-64 -121 -105 -91 -83 -95 -115 -140 -0 -0 -0 -0 -0 -0 -0 -0 -0 -0 -0 -0 -0 -0 -0 -0 -0 -0 -0 -0 -0 -0 -0 -0 -0 -0 -0 -0 -0 -0 -0 -0 -0 -0 -0
-0 -0 -14 -20 -99 -62 -60 -70 -94 -0 -0 -0 -0 -0 -0 -0 -0 -0 -0 -0 -0 -0 -0 -0 -0 -0 -0 -0 -0 -0 -0 -0 -0 -0 -0 -0 -0 -0 -0 -0 -0 -0 -0
-0 -0 -0 -0 -8 -0 -86 -90 -101 -127 -4 -0 -0 -0 -0 -0 -0 -0 -0 -0 -0 -0 -0 -0 -0 -0 -0 -0 -0 -0 -0 -0 -0 -0 -0 -0 -0 -0 -0 -0 -0 -0 -0
-102 -116 -123 -98 -81 -79 -64 -60 -56 -68 -70 -77 -38 -0 -0 -0 -0 -0 -0 -0 -0 -0 -0 -0 -0 -0 -0 -0 -0 -0 -0 -0 -0 -0 -0 -0 -0 -0 -0 -0 -0 -0 -0
Wind_Speed
25 24 23 21 20 16 17 16 21 21 25 24 23 22 19 20 17 15 13 10 9 7 6 5 6 7 8 8 9 9 10 9 7 10 10 14 14 13 13 14 15 13 10
26 25 24 21 20 19 20 21 21 28 21 22 21 20 18 18 17 16 14 10 8 5 5 3 2 5 4 5 7 8 9 10 11 9 13 13 12 13 13 16 24 23 21
25 26 24 23 20 23 25 19 32 25 21 21 21 19 18 17 17 17 15 12 10 6 4 3 1 1 2 5 5 7 8 9 11 11 13 13 15 17 18 18 20 23 23
25 27 27 25 23 24 27 24 24 26 19 21 20 18 19 17 16 15 13 12 10 7 6 5 4 3 3 3 6 6 8 7 9 11 13 15 17 19 21 25 28 25 24
24 26 31 27 25 22 27 28 25 20 21 20 17 16 16 16 14 13 12 12 11 9 8 8 6 5 5 4 4 5 6 8 11 12 15 17 19 22 25 29 30 30 28
25 31 28 27 26 25 24 22 21 21 20 19 19 19 17 16 15 15 13 12 11 10 10 7 7 7 7 6 7 6 6 8 12 13 13 16 20 23 28 30 30 30 34
25 25 25 24 26 26 22 22 23 23 21 21 21 21 20 18 16 17 15 12 11 11 9 8 8 7 8 8 6 6 7 7 11 13 13 17 21 23 26 27 25 27 30
24 22 21 20 22 23 23 24 26 24 24 23 21 21 20 19 18 16 15 13 11 10 9 8 9 8 7 7 8 8 9 10 13 12 14 19 21 23 24 27 28 29 29
25 22 22 21 21 21 24 26 24 24 24 25 23 22 21 21 17 15 13 11 10 9 8 7 8 7 6 6 7 8 10 14 15 14 17 21 23 25 24 23 27 30 34
27 26 24 23 23 23 25 25 25 25 25 23 24 23 23 23 18 15 13 12 11 10 8 7 7 6 4 4 6 7 11 13 14 17 20 20 22 23 23 22 25 27 28
24 26 25 25 25 25 24 25 26 26 25 24 24 23 21 19 18 15 13 11 10 12 9 8 6 5 4 5 6 8 10 10 13 16 18 21 22 23 23 22 20 20 22
21 22 26 25 25 24 23 23 27 28 27 26 25 23 20 18 16 14 13 11 12 13 10 9 7 8 7 7 7 7 6 10 13 13 15 18 20 21 20 20 19 19 18
27 26 26 26 27 27 25 24 26 27 30 29 27 24 22 20 16 15 14 10 9 13 10 7 8 11 10 9 6 5 6 8 9 11 13 15 17 19 18 19 20 21 22
26 27 27 29 30 30 30 29 28 29 30 28 28 27 24 21 18 14 12 14 11 10 4 6 6 9 10 9 8 7 7 7 8 10 13 15 16 17 17 19 21 23 23
33 34 34 33 31 29 30 32 32 30 29 27 25 20 24 14 15 18 8 8 6 7 5 4 7 9 8 7 8 6 7 8 9 11 13 13 14 15 16 19 21 23 23
27 29 30 30 30 28 27 22 20 17 15 15 16 15 11 6 7 11 6 4 4 3 5 6 6 7 5 5 6 6 9 9 8 10 11 11 12 13 16 19 21 21 22
22 23 24 25 23 21 15 12 16 12 11 7 9 12 7 7 3 3 5 3 3 4 10 4 5 2 2 4 5 6 11 9 8 9 10 10 12 14 15 19 19 20 22
19 20 23 27 25 13 17 19 24 26 15 12 14 5 4 10 9 8 3 3 2 4 4 2 2 2 4 5 4 7 10 10 11 10 11 11 13 14 15 16 18 20 21
18 17 23 21 27 29 6 9 8 4 6 5 4 5 6 10 11 8 6 1 0 2 2 3 3 3 4 4 7 10 10 11 11 10 11 12 13 14 14 15 17 18 19
13 11 8 6 4 7 11 10 11 10 10 8 7 5 8 6 5 4 3 2 3 3 3 3 3 4 4 7 10 11 11 10 10 11 12 11 12 12 14 15 16 17 18
13 12 11 10 8 8 9 11 11 10 10 7 8 9 10 5 5 6 4 4 3 3 3 2 4 6 7 9 11 11 10 9 9 9 10 10 10 11 13 14 15 16 16
14 12 12 12 12 12 11 11 10 8 7 6 6 6 5 5 6 5 3 4 3 3 4 6 6 6 8 10 11 10 8 8 8 9 8 9 10 11 13 14 15 15 16
13 11 9 9 9 9 9 7 6 5 4 4 3 3 2 3 5 7 5 4 4 4 4 3 4 5 8 10 10 9 8 8 7 6 6 9 9 10 12 13 14 14 15
14 14 10 9 8 8 7 7 8 8 4 2 0 2 2 1 2 3 3 3 3 2 2 2 3 5 7 8 7 7 9 11 9 6 7 9 10 11 11 12 13 13 14
17 15 15 13 14 16 16 15 11 9 8 5 4 3 2 2 3 5 5 4 4 4 3 1 4 4 5 6 6 6 8 10 8 7 9 11 10 10 11 11 12 13 14
19 19 20 22 19 15 11 10 10 9 11 15 11 7 6 6 6 7 7 7 7 6 6 5 5 4 4 4 4 4 7 9 9 9 11 13 12 10 9 10 12 13 13
Wind_Direction
190 190 190 192 195 200 197 196 185 179 177 176 175 174 170 172 168 166 167 160 158 147 119 83 56 52 47 44 49 45 36 33 28 20 24 8 1 3 3 355 343 339 335
193 191 193 193 194 196 196 192 186 183 182 179 178 177 176 178 178 179 180 176 177 173 169 129 104 52 50 41 29 26 22 17 5 3 2 1 358 357 356 344 327 325 328
195 195 196 195 195 196 194 196 188 188 188 186 186 186 186 186 187 190 192 192 195 202 203 209 213 82 5 10 10 4 0 1 356 352 352 2 356 353 349 347 339 332 330
197 196 197 196 196 195 193 193 192 192 203 194 196 198 196 196 198 200 203 208 214 223 226 232 239 252 289 334 345 342 347 352 346 346 343 343 342 345 342 335 329 331 330
200 199 199 197 197 198 196 194 195 205 203 208 214 215 212 210 212 213 217 220 228 235 234 238 250 256 270 280 312 321 325 332 335 330 330 332 331 331 331 328 324 324 326
203 201 199 199 199 200 201 208 215 217 220 232 225 225 225 226 222 220 227 230 237 244 241 257 279 275 270 274 276 295 308 317 325 322 323 323 325 326 326 325 323 322 321
207 204 200 203 205 205 208 212 215 215 225 227 235 240 236 235 232 226 227 238 242 243 253 262 278 281 271 287 286 267 278 294 315 320 313 319 323 324 327 327 324 322 321
210 220 222 213 212 212 216 214 215 224 225 227 237 238 244 245 234 233 231 237 253 252 265 271 280 277 270 283 301 304 307 310 316 316 311 317 321 324 325 325 323 322 323
235 230 227 224 224 218 221 220 223 226 235 236 242 248 249 259 248 242 235 249 254 253 274 274 287 288 260 271 297 298 311 320 325 326 323 323 325 326 328 329 326 325 323
236 235 238 234 229 228 222 231 231 232 231 244 249 251 255 262 257 249 238 262 271 281 281 286 281 281 274 281 297 304 312 320 326 330 331 333 335 334 335 332 330 327 329
233 241 243 243 238 233 236 243 243 243 246 244 247 252 253 252 258 248 237 264 273 293 294 297 301 298 315 315 311 310 316 329 333 333 332 331 337 338 340 344 344 341 337
230 241 240 236 239 246 242 245 248 248 248 249 248 249 247 246 248 245 242 271 284 298 299 308 315 313 319 325 331 339 348 339 336 338 339 342 344 346 346 349 351 350 345
254 251 246 246 246 249 245 249 250 247 247 248 248 247 245 239 236 224 248 263 270 291 299 313 327 327 333 345 347 3 358 353 348 346 348 348 349 352 354 355 355 354 349
258 256 256 252 253 252 254 250 250 255 254 254 252 250 247 236 229 234 251 262 275 287 302 333 344 347 347 355 353 4 9 13 3 358 354 353 354 353 353 353 350 352 351
274 273 268 265 262 263 267 265 257 256 251 251 257 267 274 232 238 263 223 233 245 280 327 345 340 342 343 355 351 10 31 25 6 2 359 359 359 356 353 352 350 350 349
286 282 278 273 270 267 271 276 278 257 245 241 244 238 226 313 296 172 204 220 213 224 310 324 330 333 341 353 356 15 21 14 11 4 1 0 357 357 353 353 352 351 350
295 292 290 285 266 255 256 262 293 294 280 226 255 264 209 195 209 181 269 278 255 270 311 317 324 348 12 8 6 12 13 13 20 9 3 360 358 358 356 354 355 356 354
301 297 292 292 288 234 265 288 281 300 325 263 270 148 135 138 141 161 176 151 140 327 337 27 6 25 11 0 2 14 19 23 15 10 10 10 1 357 1 3 3 0 360
316 321 314 297 258 272 307 299 276 159 225 127 121 79 92 104 129 142 140 203 75 98 3 8 9 12 12 19 24 30 31 25 22 21 12 8 6 8 12 12 9 8 7
2 13 43 98 5 346 45 95 116 120 119 118 98 93 104 110 129 130 120 107 89 59 31 360 21 51 52 40 41 37 27 18 14 5 6 11 15 21 18 17 15 13 12
30 35 51 53 49 63 86 107 104 103 104 95 104 121 127 129 121 126 122 102 74 14 16 88 104 86 62 39 36 26 18 14 15 16 20 22 26 26 23 22 20 19 19
29 30 32 46 60 75 89 95 98 90 88 95 102 108 101 96 111 117 92 77 41 74 116 113 99 76 53 42 38 27 23 14 6 11 25 29 28 26 23 22 22 22 22
12 13 22 36 60 67 61 56 60 67 69 71 70 87 108 105 105 96 83 63 50 76 110 89 69 54 33 34 35 34 25 8 3 19 28 24 21 19 19 23 23 25 25
351 354 353 354 1 355 355 348 346 337 345 8 125 94 88 360 32 44 31 28 23 34 47 52 45 29 20 13 29 27 17 1 5 31 28 14 13 13 16 20 24 27 26
311 321 327 333 328 328 330 322 324 315 306 303 321 338 319 334 321 323 337 349 353 351 353 32 356 355 358 11 27 22 7 359 6 14 6 3 7 10 11 16 20 23 26
312 313 310 308 306 319 324 329 344 347 316 300 303 312 306 306 305 307 320 325 323 317 323 318 321 312 319 350 3 14 353 358 357 355 353 350 353 1 15 15 15 20 24